Location: Epalinges
(46.5518°N, 6.6683°E)
Time: 15:27:02
(UTC+00:00)

Helios 1B rocket - Pass Details

Date: 20 June 2021
Orbit: 573 x 583 km, 98.2° (Epoch: 04 August)

Event Time Altitude Azimuth Distance (km) Brightness Sun altitude
Rises 02:22:39 0° 2° (N) 2,800 6.9 -10.4°
Reaches altitude 10° 02:25:05 10° 350° (N) 1,895 5.7 -10.1°
Maximum altitude 02:28:26 25° 294° (WNW) 1,177 3.9 -9.8°
Enters shadow 02:31:35 11° 241° (WSW) 1,810 4.4 -9.4°
